Regional Weather Roundup
Issued by NWS Little Rock, AR

Home | Current Version | Previous Version | Text Only | Print | Product List | Glossary Off
Versions: 1 2 3 4 5 6 7 8 9 10 11 12 13 14 15 16 17 18 19 20 21 22 23 24 25 26 27

000
ASUS44 KLZK 231505
RWRLZK

WEATHER ROUNDUP FOR ARKANSAS
NATIONAL WEATHER SERVICE LITTLE ROCK AR
1000 AM CDT WED APR 23 2014

NOTE: "FAIR" INDICATES FEW OR NO CLOUDS BELOW 12,000 FEET WITH NO
SIGNIFICANT WEATHER AND/OR OBSTRUCTIONS TO VISIBILITY.

ARZ001-003-010-029-231600-
NORTHWEST ARKANSAS

CITY           SKY/WX    TMP DP  RH WIND       PRES   REMARKS
FAYETTEVILLE   MOSUNNY   68  41  37 SE14G24   30.00S
FORT SMITH     SUNNY     66  47  50 E13       29.99F
HARRISON       SUNNY     63  40  42 SE13G21   30.05S
BENTONVILLE    SUNNY     64  43  45 SE12      30.01S
ROGERS         SUNNY     65  39  38 SE12      30.01S
SILOAM SPGS    CLOUDY    66  43  42 SE15      30.00S
HIGHFILL       MOSUNNY   64  41  42 SE14      29.99F
SPRINGDALE     MOSUNNY   63  41  45 SE7G14    30.02F
$$

ARZ004-005-016-231600-
NORTH CENTRAL ARKANSAS

CITY           SKY/WX    TMP DP  RH WIND       PRES   REMARKS
BATESVILLE     SUNNY     64  43  45 E8        30.07S
FLIPPIN        SUNNY     61  39  44 SE8       30.06S
MTN HOME       SUNNY     64  36  35 SE9       30.05R
$$

ARZ040-041-231600-
WEST CENTRAL ARKANSAS

CITY           SKY/WX    TMP DP  RH WIND       PRES   REMARKS
MENA           SUNNY     64  52  63 NE5       30.01S
MOUNT IDA      SUNNY     65  52  62 SE6       30.00S
$$

ARZ009-017-025-026-028-231600-
NORTHEAST ARKANSAS

CITY           SKY/WX    TMP DP  RH WIND       PRES   REMARKS
CORNING        FAIR      63  41  45 NE7       30.08S
JONESBORO      SUNNY     64  41  42 E7        30.07R
NEWPORT        SUNNY     63  44  49 E7        30.09R
WALNUT RIDGE   SUNNY     63  39  42 E7        30.08S
BLYTHEVILLE    SUNNY     64  42  44 E10       30.07S
NW BLYTHEVILLE SUNNY     64  43  45 E8        30.07R
$$

ARZ022-023-033-042-044-231600-
CENTRAL ARKANSAS

CITY           SKY/WX    TMP DP  RH WIND       PRES   REMARKS
LITTLE ROCK    SUNNY     66  45  46 E10       30.06S
N LITTLE ROCK  SUNNY     66  46  46 E13G18    30.06S
JACKSONVILLE   SUNNY     67  45  44 SE10      30.06S
SEARCY         SUNNY     65  46  50 VRB7      30.08S
HOT SPRINGS    SUNNY     67  45  45 E12       30.04S
RUSSELLVILLE   SUNNY     66  44  45 E8        30.04S
CLINTON        FAIR      64  43  45 E7        30.07F
$$

ARZ036-231600-
EAST ARKANSAS

CITY           SKY/WX    TMP DP  RH WIND       PRES   REMARKS
WEST MEMPHIS   SUNNY     67  43  41 E7        30.05R
$$

ARZ050-053-066-070-073-231600-
SOUTHWEST ARKANSAS

CITY           SKY/WX    TMP DP  RH WIND       PRES   REMARKS
ARKADELPHIA    PTSUNNY   68  53  58 VRB5      30.03F
CAMDEN         SUNNY     68  48  49 MISG      30.02S
TEXARKANA      SUNNY     72  61  68 VRB6      29.99S
EL DORADO      SUNNY     71  52  50 SE7       30.02R
DE QUEEN       SUNNY     68  58  70 E6        29.97S
$$

ARZ056-057-069-231600-
SOUTHEAST ARKANSAS

CITY           SKY/WX    TMP DP  RH WIND       PRES   REMARKS
PINE BLUFF     SUNNY     65  49  56 E9        30.05S
STUTTGART      SUNNY     66  45  45 E10       30.06S
MONTICELLO     SUNNY     67  51  56 E7        30.03S

$$





USA.gov is the U.S. government's official web portal to all federal, state and local government web resources and services.